sat.trackr.live / text

‹ back to catalog

STARLINK-11096 [DTC]

NORAD 59719 · 2024-088M

PAYLOAD ACTIVE UNKNOWN

§ Identity

Operator
Country
US
Launch date
2024-05-10
Launch site
AFWTR
Launch vehicle
Mass (kg)
RCS (m²)

Purposes: comms

External: N2YO · Heavens-Above · Gunter

§ Orbital elements

Epoch: 2026-05-24T21:05:11.541120Z

Period
91.74 min
Inclination
53.1600°
Eccentricity
0.0000735
Mean motion
15.69709175 rev/d
Perigee alt
359.2 km
Apogee alt
360.2 km
Semi-major
6,737.9 km
B*
-2.8211e-6
RAAN
311.0419°
Arg perigee
96.4672°
Mean anomaly
263.6429°
Rev number
11,823

§ Raw data

STARLINK-11096 [DTC]1 59719U 24088M   26144.87860580 -.00000930  00000+0 -28211-5 0  99942 59719  53.1600 311.0419 0000735  96.4672 263.6429 15.69709175118233

JSON: /api/v1/satellites/59719 · /tle

For live sub-satellite position, see the globe view (requires WebGL).

§ Visibility from observer

Set your observer location to see the next 7 days of passes ≥ 10°. The values pass through the URL so the page stays shareable.

No JS? Fill the form by hand. The geolocation button needs JavaScript.